Location: Newark
(48.3831°N, 4.1956°E)
Time: 11:26:04
(UTC+00:00)

Envisat - Pass Details

Date: 12 November 2019
Orbit: 764 x 766 km, 98.1° (Epoch: 13 December)

Event Time Altitude Azimuth Distance (km) Brightness Sun altitude
Rises 05:18:44 0° 28° (NNE) 3,243 6.5 -14.5°
Reaches altitude 10° 05:21:57 10° 50° (NE) 2,311 6.0 -13.9°
Maximum altitude 05:25:05 16° 88° (E) 1,906 6.2 -13.4°
Drops below altitude 10° 05:28:12 10° 126° (SE) 2,299 6.6 -12.9°
Sets 05:31:23 0° 148° (SSE) 3,219 7.0 -12.4°
